Wetterdaten am Flugplatz MSG Übersee

alte Datensätze gelöscht
57 aktuelle Wetterdateneinträge gefunden

Datum/Uhrzeit   Windrichtung/Grad    Geschw./kmh    Temp./C°    Luftdruck/mbar    Spannung/Volt   
2026-05-04 00:04 NW/321 6 19 1016 12,62
2026-05-04 00:14 NW/327 3 19 1017 12,55
2026-05-04 00:24 NW/329 3 19 1017 12,61
2026-05-04 00:34 NW/329 2 19 1017 12,60
2026-05-04 00:45 NW/329 3 18 1017 12,58
2026-05-04 00:55 NW/329 2 18 1017 12,62
2026-05-04 01:05 NW/329 3 18 1017 12,43
2026-05-04 01:15 W/287 4 18 1017 12,60
2026-05-04 01:25 W/271 6 18 1017 12,58
2026-05-04 01:35 W/269 7 17 1017 12,55
2026-05-04 01:45 W/268 8 17 1017 12,67
2026-05-04 01:55 W/266 6 17 1017 12,70
2026-05-04 02:05 W/288 8 17 1018 12,30
2026-05-04 02:15 NW/294 11 17 1018 12,55
2026-05-04 02:25 NW/300 13 17 1018 12,60
2026-05-04 02:35 NW/304 15 17 1018 12,52
2026-05-04 02:45 NW/307 10 17 1018 12,52
2026-05-04 02:55 NW/304 7 17 1018 12,55
2026-05-04 03:05 W/291 6 17 1018 12,39
2026-05-04 03:16 W/290 7 17 1018 12,51
2026-05-04 03:26 W/275 6 17 1019 12,60
2026-05-04 03:36 W/278 8 17 1019 12,60
2026-05-04 03:46 NW/299 9 17 1019 12,57
2026-05-04 03:56 W/290 7 17 1019 12,57
2026-05-04 04:06 W/274 9 17 1019 12,16
2026-05-04 04:16 W/281 7 17 1019 12,42
2026-05-04 04:26 W/276 7 17 1019 12,52
2026-05-04 04:36 NW/297 6 16 1019 12,51
2026-05-04 04:46 W/287 5 16 1019 12,49
2026-05-04 04:56 W/278 4 16 1019 12,49
2026-05-04 05:06 W/278 2 16 1019 12,42
2026-05-04 05:16 W/278 1 16 1019 12,54
2026-05-04 05:26 W/278 3 16 1018 12,48
2026-05-04 05:36 W/278 1 16 1018 12,54
2026-05-04 05:46 W/278 2 15 1018 12,39
2026-05-04 05:56 W/278 3 15 1018 12,43
2026-05-04 06:07 W/278 2 15 1018 12,48
2026-05-04 06:17 W/278 2 15 1018 12,45
2026-05-04 06:27 W/278 2 15 1018 12,57
2026-05-04 06:37 W/278 2 14 1018 12,40
2026-05-04 06:47 W/278 4 14 1018 12,35
2026-05-04 06:57 W/278 1 14 1018 12,46
2026-05-04 07:07 W/278 1 14 1018 12,45
2026-05-04 07:17 W/278 0 14 1019 12,43
2026-05-04 07:27 W/278 0 14 1019 12,48
2026-05-04 07:37 W/278 0 14 1019 12,58
2026-05-04 07:47 W/278 1 15 1018 12,57
2026-05-04 07:57 W/278 3 16 1019 12,46
2026-05-04 08:07 W/278 4 17 1019 12,55
2026-05-04 08:17 W/278 4 18 1019 12,65
2026-05-04 08:27 W/279 6 19 1019 12,73
2026-05-04 08:37 W/279 6 20 1019 12,71
2026-05-04 08:48 NW/314 8 20 1019 12,71
2026-05-04 08:58 NW/337 8 21 1019 12,84
2026-05-04 09:08 N/10 8 22 1019 12,54
2026-05-04 09:18 NO/48 5 23 1019 12,74
2026-05-04 09:28 N/353 5 24 1019 12,70